Location: Unspecified
(48.2082°N, 0.0000°E)
Time: 22:58:39
(UTC+00:00)

Transit 4A - Pass Details

Date: 24 June 2019
Orbit: 862 x 982 km, 66.8° (Epoch: 20 July)

Event Time Altitude Azimuth Distance (km) Brightness Sun altitude
Rises 12:57:36 0° 315° (NW) 3,694 11.0 62.9°
Reaches altitude 10° 13:01:24 10° 337° (NNW) 2,746 10.3 62.6°
Maximum altitude 13:05:11 16° 13° (NNE) 2,336 9.9 62.3°
Drops below altitude 10° 13:08:57 10° 50° (NE) 2,729 10.2 61.9°
Sets 13:12:42 0° 71° (ENE) 3,659 10.8 61.6°
